星链-32729 (STARLINK-32729)

导读

STARLINK-32729是美国SpaceX星链星座的卫星,于2025年1月6日发射升空,归属美国航天范畴。作为星链计划的组成单元,它延续了星链低轨互联网星座的部署节奏,承担着为全球提供高速卫星互联网接入服务的任务,进一步扩充了星链星座的在轨规模,强化了其全球覆盖与通信服务能力。

基本信息
目录编号:
62497
目录名称:
STARLINK-32729
国际标识:
2025-003L
轨道中心:
EARTH
卫星名称:
星链-32729
卫星全名:
星链-32729 (STARLINK-32729)
卫星状态:
在轨 (已飞行614 天)
发射日期:
2025-01-06 UTC
国别 :
美国 (US)
星等 :
--
该卫星已列入 空间交会检测服务 Space Conjunction Data Service (SCDS) ,当前飞行风险评估等级: 高风险
轨道信息
数据来源 国际轨道数据 AOE轨道数据
星历时间 2026-09-12T13:36:48+0800
11小时前
查看轨道信息
2026-09-11T07:00:00+0800
1天前
查看轨道信息
半长轴 6861.142km 6861.106km
偏心率 0.0001086 0.0001684
轨道倾角 43.001° 43.001°
近地点辐角 207.393° 295.528°
升交点赤经 315.240° 322.451°
平近点角 152.686° 241.623°
近地点 482.259km 481.813km
远地点 483.751km 484.125km
周期 94.266分钟 94.265分钟
每日圈数 15.27595 15.276069
详细信息
固有亮度:
5
最大亮度:
2.5
卫星平台:
Starlink V1.0
覆盖范围:
全球
运营商:
太空探索技术公司
运营商所在国:
美国
制造商(研发单位):
太空探索技术公司
制造商所在国:
美国
使用方式:
暂无
卫星简介
Starlink 计划是 SpaceX 推出的全球卫星互联网项目,通过发射低轨道卫星,为全球尤其是偏远地区提供高速、低延迟的互联网服务。自 2019 年起,Starlink 已部署数千颗卫星,旨在缩小全球数字鸿沟,推动互联网普及。该项目还为军事、航空等行业提供通信支持,带来广泛经济效益。
2D轨道图
3D轨道图
轨道高度分析图
轨道倾角分析图
轨道综合分析图
查看轨道综合分析图
交会数据列表
事件ID 空间交会对象 最接近时刻(TCA) 交会距离 交会风险概率(CRP) 交会风险指数(CRI) 操作
CDM_260914-164006-249706-793321
2026-09-14T
16:40:29+0000
0.379 km
远距离
2.561868E-4 高风险 0.83
CDM_260914-195105-652406-249721
2026-09-14T
19:51:34+0000
0.426 km
远距离
1.812868E-4 高风险 0.8
CDM_260913-230505-691806-249721
2026-09-13T
23:05:07+0000
0.475 km
远距离
1.812341E-4 高风险 0.8
CDM_260914-150606-249706-793321
2026-09-14T
15:06:21+0000
0.810 km
远距离
3.526744E-5 中风险 0.66
CDM_260914-181406-249706-793321
2026-09-14T
18:14:38+0000
1.579 km
极远距离
3.713274E-6 低风险 0.46
CDM_260914-133206-249706-793321
2026-09-14T
13:32:12+0000
1.985 km
极远距离
1.955583E-6 低风险 0.41
CDM_260913-213005-691806-249721
2026-09-13T
21:30:57+0000
2.404 km
极远距离
1.480028E-6 低风险 0.38
CDM_260914-212505-652406-249721
2026-09-14T
21:25:43+0000
2.181 km
极远距离
1.394066E-6 低风险 0.38
CDM_260914-003905-691806-249721
2026-09-14T
00:39:16+0000
2.609 km
极远距离
1.284639E-6 低风险 0.37
CDM_260914-110606-249706-726721
OBJECT V (67267)
2026-09-14T
11:06:32+0000
2.657 km
极远距离
1.078755E-6 低风险 0.36
与全量物体交会距离演化趋势
与全量物体交会风险概率演化趋势